Location: Cul de Sac
(18.0387°N, 63.0654°W)
Time: 18:13:32
(UTC+00:00)

Cosmos 2297 Rocket - Pass Details

Date: 29 October 2020
Orbit: 838 x 845 km, 71.0° (Epoch: 23 November)

Event Time Altitude Azimuth Distance (km) Brightness Sun altitude
Rises 22:44:22 0° 346° (NNW) 3,395 5.4 -15.5°
Reaches altitude 10° 22:46:49 10° 348° (NNW) 2,459 4.6 -16.1°
Maximum altitude 22:52:27 72° 73° (ENE) 884 2.1 -17.4°
Drops below altitude 10° 22:58:03 10° 157° (SSE) 2,450 4.5 -18.7°
Sets 23:00:30 0° 159° (SSE) 3,382 5.2 -19.3°
